Home   Weather   Rio Grande   Past weeks

Flag for Brazil Past Weather in Rio Grande, Rio Grande do Sul, Brazil — Yesterday and Last 2 Weeks

Now
72 °F

Clear.


Feels Like: 72 °F
Forecast: 71 / 76 °F
Wind: 9 mph from Southeast

Location: Porto Alegre Aero-Porto

Current Time: Jan 22, 2017 at 1:55:54 am

Latest Report: Jan 22, 2017 at 1:00 am


Visibility: 10 mi

Pressure: 30.01 "Hg

Humidity: 78%

Dew Point: 64 °F

Location of Rio GrandeLocation

Past Weather in Rio Grande — Graph

°F

Rio Grande Temperature Yesterday

Maximum temperature yesterday: 84 °F (at 2:00 pm)
Minimum temperature yesterday: 66 °F (at 6:00 am)
Average temperature yesterday: 76 °F

High & Low Weather Summary for the Past Weeks

 TemperatureHumidityPressure
High91 °F (Jan 13, 5:00 pm)100% (Jan 16, 8:00 pm)30.12 "Hg (Jan 16, 8:00 pm)
Low34 °F (Jan 16, 8:00 pm)43% (Jan 11, 4:00 pm)29.56 "Hg (Jan 17, 4:00 pm)
Average78 °F72%29.85 "Hg
* Reported Jan 7 12:00 am — Jan 22 12:00 am, Rio Grande, Weather by CustomWeather, © 2017

Note: Actual official high and low records may vary slightly from our data, if they occured in-between our weather recording intervals... More about our weather records

Advertising

Rio Grande Weather History for the Previous 24 Hours

Scroll right to see more
 ConditionsComfort  
Time TempWeatherWind HumidityBarometerVisibility
12:00 am
Sun, Jan 22
73 °FClear.12 mph74%30.01 "Hg10 mi
11:00 pm
Sat, Jan 21
73 °FClear.13 mph74%30.01 "Hg10 mi
10:00 pm75 °FClear.14 mph69%30.01 "Hg10 mi
9:00 pm75 °FClear.17 mph69%29.98 "Hg10 mi
8:00 pm79 °FSunny.17 mph58%29.98 "Hg10 mi
7:00 pm79 °FPassing clouds.16 mph58%29.98 "HgN/A
6:00 pm81 °FScattered clouds.18 mph54%29.98 "HgN/A
5:00 pm84 °FScattered clouds.18 mph51%30.01 "HgN/A
4:00 pm84 °FScattered clouds.18 mph51%30.01 "HgN/A
3:00 pm84 °FScattered clouds.15 mph51%30.04 "HgN/A
2:00 pm84 °FScattered clouds.14 mph48%30.07 "HgN/A
1:00 pm82 °FScattered clouds.14 mph51%30.07 "HgN/A
12:00 pm82 °FPassing clouds.14 mph45%30.07 "HgN/A
11:00 am81 °FSunny.13 mph51%30.09 "Hg10 mi
10:00 am79 °FSunny.9 mph54%30.09 "Hg10 mi
9:00 am75 °FSunny.7 mph69%30.09 "Hg10 mi
8:00 am72 °FSunny.2 mph83%30.09 "Hg10 mi
7:00 am68 °FSunny.2 mph88%30.07 "Hg10 mi
6:00 am66 °FClear.3 mph94%30.07 "Hg10 mi
5:00 am68 °FClear.7 mph83%30.04 "Hg10 mi
4:00 am68 °FClear.5 mph83%30.07 "Hg10 mi
3:00 am72 °FClear.7 mph73%30.07 "Hg10 mi
2:00 am72 °FClear.9 mph73%30.07 "Hg10 mi
1:00 am72 °FClear.10 mph73%30.09 "Hg10 mi
Weather by CustomWeather, © 2017

See weather overviewHow to use our weather pages